Boulder City, NV

12:09 PM PST on December 02, 2016 (GMT -0800)
Boulder City

Weather History for KBVU - July, 2013

Change the Weather History Date:

Wednesday, July 3, 2013

  Actual Average (KLAS) Record (KLAS)
Temperature  
Mean Temperature 96 °F 91 °F  
Max Temperature 109 °F 103 °F 116 °F (1937)
Min Temperature 82 °F 80 °F 60 °F (1943)
Degree Days  
Heating Degree Days 0 0  
Month to date heating degree days 0  
Since 1 June heating degree days 1  
Since 1 July heating degree days 0  
Cooling Degree Days 30 26  
Month to date cooling degree days 78  
Year to date cooling degree days 1278  
Since 1 June cooling degree days 728  
Growing Degree Days 46 (Base 50)    
Moisture  
Dew Point 44 °F    
Average Humidity 17    
Maximum Humidity 39    
Minimum Humidity 7    
Precipitation  
Precipitation 0.00 in 0.01 in 0.74 in (2011)
Month to date precipitation 0.02  
Year to date precipitation 2.10  
Snow  
Snow 0.00 in 0.00 in 0.00 in ()
Month to date snowfall 0.0  
Since 1 June snowfall 0.0  
Since 1 July snowfall 0.0  
Snow Depth -    
Sea Level Pressure  
Sea Level Pressure 29.78 in    
Wind  
Wind Speed 7 mph (East)    
Max Wind Speed 16 mph    
Max Gust Speed 22 mph    
Visibility 10 miles    
Events Thunderstorm    
T = Trace of Precipitation, MM = Missing Value Source: NWS Daily Summary

Daily Weather History Graph

Daily Weather History Graph

Search for Another Location

Airport or City:

Trip Planner

Search our weather history database for the weather conditions in past years. The results will help you decide how hot, cold, wet, or windy it might be!

Date:

Astronomy

Jul. 03, 2013 Rise Set
Actual Time 5:27 AM PDT 7:59 PM PDT
Civil Twilight 4:57 AM PDT 8:29 PM PDT
Nautical Twilight 4:20 AM PDT 9:06 PM PDT
Astronomical Twilight 3:39 AM PDT 9:48 PM PDT
Moon 2:04 AM PDT (7/3) 4:16 PM PDT (7/3)
Length of Visible Light 15h 32m
Length of Day
14h 32m
Waning Crescent, 17% of the Moon is Illuminated
Jul 3
Waning Crescent
Jul 8
New
Jul 15
First Quarter
Jul 22
Full
Jul 29
Last Quarter

Hourly Weather History & Observations

Time (PDT) Temp. Heat Index Dew Point Humidity Pressure Visibility Wind Dir Wind Speed Gust Speed Precip Events Conditions
12:15 AM 96.8 °F - 48.2 °F 19% 29.83 in 10.0 mi SSE 15.0 mph 21.9 mph N/A   Clear
12:35 AM 95.0 °F - 48.2 °F 20% 29.84 in 10.0 mi SSE 11.5 mph - N/A   Clear
12:55 AM 95.0 °F - 48.2 °F 20% 29.84 in 10.0 mi SSE 8.1 mph - N/A   Clear
1:15 AM 95.0 °F - 48.2 °F 20% 29.82 in 10.0 mi SSW 10.4 mph 17.3 mph N/A   Clear
1:35 AM 95.0 °F - 48.2 °F 20% 29.81 in 10.0 mi SSW 8.1 mph - N/A   Clear
1:55 AM 95.0 °F - 48.2 °F 20% 29.81 in 10.0 mi SSW 6.9 mph - N/A   Clear
2:15 AM 93.2 °F - 48.2 °F 21% 29.81 in 10.0 mi SE 5.8 mph - N/A   Clear
2:35 AM 91.4 °F - 46.4 °F 21% 29.81 in 10.0 mi Calm Calm - N/A   Clear
2:55 AM 89.6 °F - 48.2 °F 24% 29.80 in 10.0 mi NW 4.6 mph - N/A   Clear
3:15 AM 86.0 °F 84.2 °F 53.6 °F 33% 29.80 in 10.0 mi NNE 3.5 mph - N/A   Clear
3:35 AM 86.0 °F - 51.8 °F 31% 29.80 in 10.0 mi ENE 6.9 mph - N/A   Clear
3:55 AM 84.2 °F 83.0 °F 55.4 °F 37% 29.80 in 10.0 mi ENE 6.9 mph - N/A   Clear
4:15 AM 84.2 °F 82.8 °F 53.6 °F 35% 29.80 in 10.0 mi ENE 8.1 mph - N/A Thunderstorm Clear
4:35 AM 84.2 °F 82.8 °F 53.6 °F 35% 29.80 in 10.0 mi ENE 6.9 mph - N/A   Clear
4:55 AM 82.4 °F 81.7 °F 55.4 °F 39% 29.81 in 10.0 mi NE 6.9 mph - N/A   Clear
5:15 AM 84.2 °F - 51.8 °F 33% 29.82 in 10.0 mi ENE 6.9 mph - N/A   Clear
5:35 AM 84.2 °F 82.8 °F 53.6 °F 35% 29.82 in 10.0 mi NE 5.8 mph - N/A   Clear
5:55 AM 84.2 °F 82.8 °F 53.6 °F 35% 29.83 in 10.0 mi NNE 5.8 mph - N/A   Clear
6:15 AM 86.0 °F - 50.0 °F 29% 29.83 in 10.0 mi NE 4.6 mph - N/A   Clear
6:35 AM 86.0 °F 84.2 °F 53.6 °F 33% 29.83 in 10.0 mi NE 4.6 mph - N/A   Clear
6:55 AM 89.6 °F - 50.0 °F 26% 29.84 in 10.0 mi NNE 3.5 mph - N/A   Clear
7:15 AM 91.4 °F - 50.0 °F 24% 29.85 in 10.0 mi Calm Calm - N/A   Clear
7:35 AM 91.4 °F - 51.8 °F 26% 29.85 in 10.0 mi NE 4.6 mph - N/A   Clear
7:55 AM 93.2 °F - 48.2 °F 21% 29.85 in 10.0 mi ENE 4.6 mph - N/A Thunderstorm Clear
8:15 AM 95.0 °F - 44.6 °F 18% 29.86 in 10.0 mi Calm Calm - N/A   Clear
8:35 AM 96.8 °F - 44.6 °F 17% 29.87 in 10.0 mi ESE 4.6 mph - N/A   Clear
8:55 AM 98.6 °F - 46.4 °F 17% 29.86 in 10.0 mi East 4.6 mph - N/A   Clear
9:15 AM 98.6 °F - 44.6 °F 16% 29.86 in 10.0 mi East 6.9 mph - N/A Thunderstorm Clear
9:35 AM 98.6 °F - 44.6 °F 16% 29.86 in 10.0 mi East 5.8 mph - N/A Thunderstorm Clear
9:55 AM 100.4 °F - 46.4 °F 16% 29.86 in 10.0 mi East 8.1 mph - N/A   Clear
10:15 AM 100.4 °F - 44.6 °F 15% 29.86 in 10.0 mi ENE 3.5 mph - N/A   Clear
10:35 AM 100.4 °F - 44.6 °F 15% 29.86 in 10.0 mi NE 4.6 mph - N/A   Clear
10:55 AM 102.2 °F - 44.6 °F 14% 29.85 in 10.0 mi ENE 8.1 mph - N/A   Clear
11:15 AM 102.2 °F - 44.6 °F 14% 29.85 in 10.0 mi NE 6.9 mph - N/A   Clear
11:35 AM 102.2 °F - 44.6 °F 14% 29.85 in 10.0 mi ENE 3.5 mph - N/A   Clear
11:55 AM 102.2 °F - 44.6 °F 14% 29.84 in 10.0 mi North 5.8 mph - N/A   Clear
12:15 PM 104.0 °F - 44.6 °F 13% 29.83 in 10.0 mi NNE 3.5 mph - N/A   Clear
12:35 PM 104.0 °F - 42.8 °F 12% 29.83 in 10.0 mi NE 5.8 mph - N/A   Clear
12:55 PM 104.0 °F - 42.8 °F 12% 29.82 in 10.0 mi East 3.5 mph - N/A   Clear
1:15 PM 105.8 °F - 42.8 °F 12% 29.81 in 10.0 mi Calm Calm - N/A   Clear
1:35 PM 105.8 °F - 41.0 °F 11% 29.80 in 10.0 mi NNE 3.5 mph - N/A   Clear
1:55 PM 107.6 °F - 41.0 °F 10% 29.80 in 10.0 mi South 3.5 mph - N/A Thunderstorm Clear
2:15 PM 107.6 °F - 39.2 °F 10% 29.78 in 10.0 mi ENE 4.6 mph - N/A   Clear
2:35 PM 109.4 °F - 39.2 °F 9% 29.77 in 10.0 mi East 6.9 mph - N/A   Clear
2:55 PM 109.4 °F - 37.4 °F 9% 29.76 in 10.0 mi ENE 3.5 mph - N/A   Clear
3:15 PM 109.4 °F - 37.4 °F 9% 29.75 in 10.0 mi NNE 5.8 mph - N/A   Clear
3:35 PM 109.4 °F - 37.4 °F 9% 29.74 in 10.0 mi NE 5.8 mph - N/A   Clear
3:55 PM 109.4 °F - 35.6 °F 8% 29.72 in 10.0 mi North 6.9 mph - N/A   Clear
4:15 PM 109.4 °F - 35.6 °F 8% 29.71 in 10.0 mi Calm Calm - N/A Thunderstorm Clear
4:35 PM 109.4 °F - 35.6 °F 8% 29.70 in 10.0 mi East 6.9 mph - N/A   Clear
4:55 PM 109.4 °F - 35.6 °F 8% 29.69 in 10.0 mi East 3.5 mph - N/A   Clear
5:15 PM 109.4 °F - 32.0 °F 7% 29.68 in 10.0 mi ESE 4.6 mph - N/A Thunderstorm Clear
5:35 PM 109.4 °F - 32.0 °F 7% 29.68 in 10.0 mi Calm Calm - N/A Thunderstorm Clear
5:55 PM 109.4 °F - 33.8 °F 7% 29.68 in 10.0 mi East 4.6 mph - N/A   Clear
6:15 PM 109.4 °F - 33.8 °F 7% 29.68 in 10.0 mi East 5.8 mph - N/A   Clear
6:35 PM 109.4 °F - 33.8 °F 7% 29.68 in 10.0 mi Calm Calm - N/A   Clear
6:55 PM 109.4 °F - 35.6 °F 8% 29.68 in 10.0 mi SSE 6.9 mph - N/A   Clear
7:15 PM 109.4 °F - 39.2 °F 9% 29.68 in 10.0 mi South 15.0 mph 19.6 mph N/A   Clear
7:35 PM 107.6 °F - 39.2 °F 10% 29.69 in 10.0 mi SSE 13.8 mph 18.4 mph N/A Thunderstorm Clear
7:55 PM 105.8 °F - 39.2 °F 10% 29.68 in 10.0 mi SSE 15.0 mph - N/A   Clear
8:15 PM 104.0 °F - 39.2 °F 11% 29.69 in 10.0 mi SSE 10.4 mph - N/A   Clear
8:35 PM 104.0 °F - 39.2 °F 11% 29.69 in 10.0 mi SSE 11.5 mph - N/A   Clear
8:55 PM 104.0 °F - 39.2 °F 11% 29.69 in 10.0 mi SSE 11.5 mph - N/A   Clear
9:15 PM 104.0 °F - 39.2 °F 11% 29.69 in 10.0 mi SE 11.5 mph - N/A   Clear
9:35 PM 104.0 °F - 39.2 °F 11% 29.70 in 10.0 mi SE 11.5 mph - N/A Thunderstorm Clear
9:55 PM 102.2 °F - 41.0 °F 12% 29.70 in 10.0 mi SSE 16.1 mph 20.7 mph N/A   Clear
10:15 PM 102.2 °F - 39.2 °F 11% 29.71 in 10.0 mi South 3.5 mph - N/A   Clear
10:35 PM 100.4 °F - 42.8 °F 14% 29.72 in 10.0 mi ESE 5.8 mph - N/A   Clear
10:55 PM 100.4 °F - 39.2 °F 12% 29.72 in 10.0 mi SE 4.6 mph - N/A   Clear
11:15 PM 100.4 °F - 39.2 °F 12% 29.72 in 10.0 mi SSW 4.6 mph - N/A   Clear
11:35 PM 102.2 °F - 39.2 °F 11% 29.72 in 10.0 mi Calm Calm - N/A   Clear
11:55 PM 100.4 °F - 41.0 °F 13% 29.72 in 10.0 mi North 5.8 mph - N/A   Clear